Location: Demmingen
(48.6757°N, 10.4375°E)
Time: 23:28:57
(UTC+00:00)

CZ-2C R/B - Pass Details

Date: 04 August 2024
Orbit: 703 x 904 km, 98.2° (Epoch: 07 September)

Event Time Altitude Azimuth Distance (km) Brightness Sun altitude
Rises 02:08:35 0° 8° (N) 3,128 7.2 -14.8°
Reaches altitude 10° 02:10:54 10° 1° (N) 2,219 6.2 -14.5°
Maximum altitude 02:15:27 42° 292° (WNW) 1,056 3.6 -14.0°
Enters shadow 02:18:30 20° 232° (SW) 1,698 4.2 -13.7°
